Regional Weather Roundup
Issued by NWS

Home | Current Version | Previous Version | Text Only | Print | Product List | Glossary On
Versions: 1 2 3 4 5 6 7 8 9 10 11 12 13 14 15 16 17 18 19 20 21 22 23 24 25 26 27
000
ASUS42 KTBW 290517
RWRFL
FLORIDA REGIONAL WEATHER ROUNDUP
NATIONAL WEATHER SERVICE TAMPA BAY RUSKIN FL
100 AM EDT THU JUN 29 2017

NOTE: "FAIR" INDICATES FEW OR NO CLOUDS BELOW 12,000 FEET WITH NO
SIGNIFICANT WEATHER AND/OR OBSTRUCTIONS TO VISIBILITY.

FLZ001>010-012>015-112-114-115-290600-
PANHANDLE FLORIDA

CITY           SKY/WX    TMP DP  RH WIND       PRES   REMARKS
PENSACOLA      CLOUDY    78  74  87 E5        30.05F
PENSACOLA NAS  MOCLDY    79  75  87 SE8       30.04F
MILTON NAS     CLOUDY    73  72  96 E7        30.07
CRESTVIEW      CLOUDY    73  72  96 CALM      30.09F
DUKE FIELD     CLOUDY    74  72  95 CALM      30.07F
VALPARAISO     MOCLDY    76  74  92 CALM      30.06F
MARY ESTHER    CLOUDY    77  75  93 CALM      30.04F
PANAMA CITY    FAIR      75  72  90 E5        30.06F
TYNDALL AFB    DRIZZLE   75  73  92 E3        30.07F
APALACHICOLA   CLOUDY    77  77 100 CALM      30.06F

STATION/POSITION SKY/WX   TEMP    WIND        PRES    WAVE   SWELL
                          AIR SEA DIR/SP/G            HT/PER HT/PER
                          (F)     (DEG/KT/KT) (MB)    (FT/S) (FT/S)
30.1N   87.6W              80 82  120/ 14/ 17 1017.1    2/ 4
29.2N   88.2W              81 81  110/ 10/ 12 1016.8F   1/ 4
28.8N   86.0W              81 82  110/ 10/ 12 1017.8    2/ 8   2/ 8
PANAMA CITY BEAC           77 84   80/  9/ 13 1018.4F
TOWER C                    82     130/ 11/ 11 1018.4F
28.5N   84.5W              83 85   90/ 10/ 12 1017.9    1/ 4

$$
FLZ011-016>038-118-127-128-134-139-239-290600-
NORTH FLORIDA

CITY           SKY/WX    TMP DP  RH WIND       PRES   REMARKS
MARIANNA       MOCLDY    75  74  96 E5        30.08F
TALLAHASSEE    CLOUDY    77  74  90 E5        30.09F
PERRY          PTCLDY    77  73  87 E3        30.10S
LIVE OAK       CLEAR     75  75 100 CALM      30.11F
CROSS CITY     CLEAR     75  73  94 NE3       30.09F
LAKE CITY      FAIR      73  73 100 CALM      30.11F
GAINESVILLE    CLEAR     74  72  93 E3        30.10F
WILLISTON      CLEAR     79  75  89 MISG      30.10S
PALATKA        FAIR      77  77 100 CALM      30.11F
MAYPORT NAS    CLOUDY    79  76  90 E7        30.11F
JACKSONVILLE   CLOUDY    76  75  97 NE6       30.10F
JAX NAS        CLOUDY    80  74  81 E6        30.11F
JAX CECIL      CLOUDY    75  75 100 CALM      30.10F
FERNANDINA BEA MOCLDY    81  73  78 E5        30.11F
ST AUGUSTINE   CLOUDY    80  75  84 SE8       30.11F
PALM COAST     FAIR      76  76 100 CALM      30.10F

STATION/POSITION SKY/WX   TEMP    WIND        PRES    WAVE   SWELL
                          AIR SEA DIR/SP/G            HT/PER HT/PER
                          (F)     (DEG/KT/KT) (MB)    (FT/S) (FT/S)
SHELL POINT      NOT AVBL
KEATON BEACH               76      90/  9/ 10 1018.4F
CEDAR KEY                  81     110/ 14/ 15 1019.0F
FERNANDINA                 78 82  130/  2/  5 1020.8F
30.7N   81.3W                 81                N/A     4/ 5
MAYPORT                    79 80  100/  5/  6 1020.2F
31.4N   80.9W              81 82   90/ 14/ 16 1020.4    4/ 5   2/ 6
ST AUGUSTINE               80 80  150/  6/  7 1019.6F

$$
FLZ040-043>046-052-053-057-058-063-144-290600-
INTERIOR CENTRAL FLORIDA

CITY           SKY/WX    TMP DP  RH WIND       PRES   REMARKS
OCALA          CLEAR     77  73  87 VRB3      30.10F
THE VILLAGES     N/A     77  77 100 CALM      30.00F
LEESBURG       PTCLDY    80  75  84 E6        30.10S
SANFORD        CLOUDY    78  74  87 NE3       30.09S
ORLANDO EXEC   MOCLDY    79  76  90 E3        30.09S
ORLANDO INTL   CLOUDY    75  75 100 SE3       30.08F
KISSIMMEE      MOCLDY    78  77  96 SE5       30.09F
WINTER HAVEN   CLOUDY    79  75  87 E7        30.09F
LAKELAND       MOCLDY    77  77 100 CALM      30.09F
BARTOW         FAIR      77 N/A N/A CALM      30.08F
SEBRING        FAIR      79  76  90 CALM      30.08F
OKEECHOBEE     CLOUDY    75  73  94 CALM      30.08F

$$
FLZ041-047-054-059-064-141-147-290600-
EAST CENTRAL FLORIDA

CITY           SKY/WX    TMP DP  RH WIND       PRES   REMARKS
DAYTONA BEACH  CLOUDY    80  75  84 E3        30.10S
DELAND         CLOUDY    75  73  94 NE3       30.09F
JFK SPACE CTR  PTCLDY    78  77  95 SE3       30.07F
CAPE CANAVERAL PTCLDY    78  73  84 SE3       30.07F
PATRICK AFB    CLOUDY    80  78  96 SE6       30.07F
MELBOURNE      CLOUDY    82  76  81 SE6       30.07F
VERO BEACH     LGT RAIN  78  76  93 E5        30.08F
FT PIERCE      CLEAR     78  76  93 CALM      30.07F
STUART           N/A     81  77  89 CALM      30.08F

STATION/POSITION SKY/WX   TEMP    WIND        PRES    WAVE   SWELL
                          AIR SEA DIR/SP/G            HT/PER HT/PER
                          (F)     (DEG/KT/KT) (MB)    (FT/S) (FT/S)
28.5N   80.2W              83 84  110/ 10/ 12 1019.7F   2/ 4   2/ 8
28.9N   78.5W              81 83   90/ 10/ 12 1019.0F   3/ 8   2/ 8
TRIDENT PIER               79 78  120/  2/  4 1020.2F
28.4N   80.5W                 81                N/A     2/ 4
27.5N   80.2W                 80                N/A     2/ 5

$$
FLZ050-056-061-142-242-148-248-149-249-151-251-155-255-
160-260-290600-
WEST CENTRAL FLORIDA

CITY           SKY/WX    TMP DP  RH WIND       PRES   REMARKS
CRYSTAL RIVER  FAIR      73  73 100 CALM      30.09S
INVERNESS      FAIR      73  73 100 CALM      30.10F
BROOKSVILLE    PTCLDY    76  74  93 E3        30.09S
CLEARWATER AIR MOCLDY    77  77 100 SE3       30.07F
ST PETE CLEARW PTCLDY    80  75  84 E6        30.07F
TAMPA INTL     PTCLDY    80  74  81 SE3       30.08F
TAMPA EXEC     PTCLDY    77  73  88 CALM      30.09S
PLANT CITY     PTCLDY    77  77 100 MISG      30.10F
MACDILL AFB    PTCLDY    76  76 100 SE5       30.07F
PETER O KNIGHT PTCLDY    81  77  89 SE3       30.08F
ST PETERSBURG  MOCLDY    82  73  74 SE7       30.06F
SARASOTA       CLEAR     75  72  90 E6        30.05F
VENICE         FAIR      77  73  88 NE6       30.07F

STATION/POSITION SKY/WX   TEMP    WIND        PRES    WAVE   SWELL
                          AIR SEA DIR/SP/G            HT/PER HT/PER
                          (F)     (DEG/KT/KT) (MB)    (FT/S) (FT/S)
27.3N   84.2W                 85                N/A     1
CLEARWATER BEACH           80 88  130/  5/  8 1018.4F
MIDDLE TAMPA BAY           78     110/  6/  7 1018.6F
VENICE                     77 87   50/  5/  6 1018.1F

$$
FLZ066-069-070-075>078-162-262-165-265-290600-
SOUTHWEST FLORIDA AND KEYS

CITY           SKY/WX    TMP DP  RH WIND       PRES   REMARKS
PUNTA GORDA    CLEAR     75  74  96 E3        30.08F
FT MYERS       CLEAR     76  75  97 CALM      30.06S
SOUTHWEST INTL CLEAR     75  73  93 CALM      30.07S
NAPLES         CLEAR     78  74  87 E6        30.06F
MARCO ISLAND   CLOUDY    77  73  88 NE5       30.06F
IMMOKALEE      FAIR      77  75  94 E3        30.08S
MARATHON       PTCLDY    84  77  79 SE7       30.06F
KEY WEST NAS   PTCLDY    82  77  84 SE8       30.06F
KEY WEST INTL  PTCLDY    84  76  76 SE8       30.07F

STATION/POSITION SKY/WX   TEMP    WIND        PRES    WAVE   SWELL
                          AIR SEA DIR/SP/G            HT/PER HT/PER
                          (F)     (DEG/KT/KT) (MB)    (FT/S) (FT/S)
NAPLES                        87  110/  4/  9 1017.9F
DRY TORTUGAS               85     140/  7/  8 1017.9F
SAND KEY                   83     160/ 10/ 11 1018.7F
LONG KEY                   85 89  150/  2/  4 1018.1R
MOLASSES REEF              84 84  110/  8/  9 1018.1

$$
FLZ067-068-071>074-168-172>174-290600-
SOUTHEAST FLORIDA

CITY           SKY/WX    TMP DP  RH WIND       PRES   REMARKS
W PALM BEACH   MOCLDY    83  74  74 E7        30.07F
FT LAUDER-EXEC CLOUDY    82  74  76 CALM      30.06F
FT LAUDERDALE  CLOUDY    83  76  79 SE6       30.05F
POMPANO BEACH  CLOUDY    84  76  76 SE3       30.06F
PEMBROKE PINES CLOUDY    82  74  76 SW3       30.07F
OPA LOCKA      CLOUDY    82  77  84 CALM      30.07F
MIAMI          CLOUDY    84  75  74 E6        30.06F
WEST KENDALL   CLOUDY    79  76  90 CALM      30.06F
HOMESTEAD      MOCLDY    78  78 100 W3        30.05F

STATION/POSITION SKY/WX   TEMP    WIND        PRES    WAVE   SWELL
                          AIR SEA DIR/SP/G            HT/PER HT/PER
                          (F)     (DEG/KT/KT) (MB)    (FT/S) (FT/S)
PORT EVERGLADES            84     130/  4/  6 1018.1F
VIRGINIA KEY               84 87  100/  5/  7 1017.4F
LAKE WORTH                 83 84  110/  9/ 11 1018.9F
FOWEY ROCKS                83 84  110/  9/ 10 1018.3F
SETTLEMENT POINT           82     140/  5/  5 1018.4F

$$





USA.gov is the U.S. government's official web portal to all federal, state and local government web resources and services.